Weather History for KOTH - June, 2014

Change the Weather History Date:

Tuesday, June 17, 2014

  Actual Average Record
Temperature  
Mean Temperature 56 °F 56 °F  
Max Temperature 64 °F 62 °F 80 °F (1945)
Min Temperature 48 °F 51 °F 36 °F (1911)
Degree Days  
Heating Degree Days 9 9  
Month to date heating degree days 131 162  
Since 1 June heating degree days 131 162  
Since 1 July heating degree days 4011 4722  
Cooling Degree Days 0 0  
Month to date cooling degree days 0 0  
Year to date cooling degree days 12 0  
Since 1 June cooling degree days 0 0  
Growing Degree Days 7 (Base 50)    
Moisture  
Dew Point 51 °F    
Average Humidity 82    
Maximum Humidity 100    
Minimum Humidity 56    
Precipitation  
Precipitation 0.00 in 0.06 in 0.55 in (2005)
Month to date precipitation 0.12 1.42  
Year to date precipitation 21.68 35.59  
Sea Level Pressure  
Sea Level Pressure 30.18 in    
Wind  
Wind Speed 8 mph (NNE)    
Max Wind Speed 17 mph    
Max Gust Speed 23 mph    
Visibility 10 miles    
Events      
T = Trace of Precipitation, MM = Missing Value Source: NWS Daily Summary

Daily Weather History Graph

Daily Weather History Graph

Search for Another Location

Airport or City:

Trip Planner

Search our weather history database for the weather conditions in past years. The results will help you decide how hot, cold, wet, or windy it might be!

Date:

Astronomy

Jun. 17, 2014 Rise Set
Actual Time 5:35 AM PDT 9:00 PM PDT
Civil Twilight 5:00 AM PDT 9:35 PM PDT
Nautical Twilight 4:13 AM PDT 10:22 PM PDT
Astronomical Twilight 3:14 AM PDT 11:21 PM PDT
Moon No Moon Rise 11:05 AM PDT (6/17)
Length of Visible Light 16h 35m
Length of Day
15h 24m
Waning Gibbous, 72% of the Moon is Illuminated
Jun 17
Waning Gibbous
Jun 19
Last Quarter
Jun 27
New
Jul 5
First Quarter
Jul 12
Full

Hourly Weather History & Observations

Time (PDT) Temp. Dew Point Humidity Pressure Visibility Wind Dir Wind Speed Gust Speed Precip Events Conditions
12:15 AM 53.6 °F 53.6 °F 100% 30.12 in 10.0 mi SE 3.5 mph - N/A   Overcast
12:35 AM 51.8 °F 51.8 °F 100% 30.12 in 10.0 mi ESE 4.6 mph - N/A   Overcast
12:55 AM 51.8 °F 51.8 °F 100% 30.12 in 10.0 mi SE 4.6 mph - N/A   Overcast
1:15 AM 51.8 °F 51.8 °F 100% 30.12 in 10.0 mi SE 3.5 mph - N/A   Overcast
1:35 AM 51.8 °F 51.8 °F 100% 30.13 in 10.0 mi SE 3.5 mph - N/A   Overcast
1:55 AM 51.8 °F 51.8 °F 100% 30.12 in 10.0 mi Calm Calm - N/A   Overcast
2:15 AM 51.8 °F 51.8 °F 100% 30.12 in 10.0 mi ESE 3.5 mph - N/A   Overcast
2:35 AM 51.8 °F 51.8 °F 100% 30.13 in 10.0 mi ESE 3.5 mph - N/A   Overcast
2:55 AM 51.8 °F 51.8 °F 100% 30.13 in 10.0 mi SE 4.6 mph - N/A   Overcast
3:15 AM 51.8 °F 51.8 °F 100% 30.13 in 10.0 mi SE 4.6 mph - N/A   Overcast
3:35 AM 51.8 °F 51.8 °F 100% 30.14 in 10.0 mi SE 4.6 mph - N/A   Overcast
3:55 AM 51.8 °F 51.8 °F 100% 30.13 in 10.0 mi SSE 3.5 mph - N/A   Overcast
4:15 AM 51.8 °F 51.8 °F 100% 30.14 in 10.0 mi SSE 3.5 mph - N/A   Overcast
4:35 AM 50.0 °F 50.0 °F 100% 30.14 in 10.0 mi SSE 4.6 mph - N/A   Mostly Cloudy
4:55 AM 50.0 °F 50.0 °F 100% 30.14 in 10.0 mi SSE 3.5 mph - N/A   Scattered Clouds
5:15 AM 50.0 °F 50.0 °F 100% 30.15 in 10.0 mi SSE 3.5 mph - N/A   Mostly Cloudy
5:55 AM 51.8 °F 50.0 °F 94% 30.15 in 10.0 mi SSE 3.5 mph - N/A   Overcast
6:15 AM 50.0 °F 50.0 °F 100% 30.16 in 10.0 mi South 3.5 mph - N/A   Overcast
6:35 AM 50.0 °F 48.2 °F 94% 30.16 in 10.0 mi SSE 4.6 mph - N/A   Partly Cloudy
6:55 AM 50.0 °F 50.0 °F 100% 30.16 in 10.0 mi SSE 4.6 mph - N/A   Mostly Cloudy
7:15 AM 51.8 °F 51.8 °F 100% 30.16 in 10.0 mi SE 5.8 mph - N/A   Overcast
7:35 AM 51.8 °F 51.8 °F 100% 30.16 in 10.0 mi SSE 5.8 mph - N/A   Overcast
7:55 AM 51.8 °F 51.8 °F 100% 30.17 in 10.0 mi SSE 3.5 mph - N/A   Overcast
8:15 AM 53.6 °F 53.6 °F 100% 30.17 in 10.0 mi SE 4.6 mph - N/A   Overcast
8:35 AM 55.4 °F 53.6 °F 94% 30.18 in 10.0 mi Calm Calm - N/A   Overcast
8:55 AM 55.4 °F 53.6 °F 94% 30.18 in 9.0 mi ESE 3.5 mph - N/A   Overcast
9:15 AM 57.2 °F 51.8 °F 82% 30.18 in 10.0 mi Calm Calm - N/A   Mostly Cloudy
9:35 AM 57.2 °F 51.8 °F 82% 30.18 in 10.0 mi Calm Calm - N/A   Mostly Cloudy
9:55 AM 57.2 °F 51.8 °F 82% 30.19 in 10.0 mi NW 3.5 mph - N/A   Overcast
10:15 AM 57.2 °F 51.8 °F 82% 30.19 in 10.0 mi West 6.9 mph - N/A   Mostly Cloudy
10:35 AM 57.2 °F 51.8 °F 82% 30.19 in 10.0 mi West 6.9 mph - N/A   Overcast
10:55 AM 59.0 °F 51.8 °F 77% 30.19 in 10.0 mi NW 5.8 mph - N/A   Overcast
11:15 AM 60.8 °F 51.8 °F 72% 30.20 in 10.0 mi NW 6.9 mph - N/A   Overcast
11:35 AM 60.8 °F 51.8 °F 72% 30.20 in 10.0 mi NW 8.1 mph - N/A   Overcast
11:55 AM 60.8 °F 51.8 °F 72% 30.21 in 10.0 mi NNW 10.4 mph - N/A   Overcast
12:15 PM 60.8 °F 51.8 °F 72% 30.21 in 10.0 mi NNW 9.2 mph - N/A   Overcast
12:35 PM 60.8 °F 51.8 °F 72% 30.21 in 10.0 mi NNW 9.2 mph - N/A   Overcast
12:55 PM 60.8 °F 51.8 °F 72% 30.21 in 10.0 mi NNW 10.4 mph - N/A   Overcast
1:15 PM 62.6 °F 51.8 °F 68% 30.20 in 10.0 mi NNW 9.2 mph - N/A   Overcast
1:35 PM 62.6 °F 51.8 °F 68% 30.20 in 10.0 mi NNW 11.5 mph 16.1 mph N/A   Mostly Cloudy
1:55 PM 62.6 °F 51.8 °F 68% 30.21 in 10.0 mi NNW 12.7 mph 17.3 mph N/A   Mostly Cloudy
2:15 PM 60.8 °F 51.8 °F 72% 30.20 in 10.0 mi North 11.5 mph 20.7 mph N/A   Overcast
2:35 PM 62.6 °F 51.8 °F 68% 30.20 in 10.0 mi North 12.7 mph 18.4 mph N/A   Overcast
2:55 PM 64.4 °F 51.8 °F 64% 30.20 in 10.0 mi North 13.8 mph 18.4 mph N/A   Mostly Cloudy
3:15 PM 64.4 °F 48.2 °F 56% 30.20 in 10.0 mi North 15.0 mph - N/A   Scattered Clouds
3:35 PM 64.4 °F 48.2 °F 56% 30.20 in 10.0 mi North 16.1 mph - N/A   Clear
3:55 PM 64.4 °F 48.2 °F 56% 30.20 in 10.0 mi North 15.0 mph 20.7 mph N/A   Clear
4:15 PM 64.4 °F 50.0 °F 59% 30.20 in 10.0 mi North 13.8 mph 19.6 mph N/A   Clear
4:35 PM 62.6 °F 50.0 °F 63% 30.20 in 10.0 mi North 16.1 mph 23.0 mph N/A   Clear
4:55 PM 62.6 °F 48.2 °F 59% 30.20 in 10.0 mi North 13.8 mph - N/A   Clear
5:15 PM 62.6 °F 48.2 °F 59% 30.20 in 10.0 mi North 17.3 mph 21.9 mph N/A   Clear
5:35 PM 62.6 °F 50.0 °F 63% 30.20 in 10.0 mi North 15.0 mph - N/A   Clear
5:55 PM 62.6 °F 51.8 °F 68% 30.20 in 10.0 mi North 13.8 mph 21.9 mph N/A   Clear
6:15 PM 62.6 °F 51.8 °F 68% 30.19 in 10.0 mi North 16.1 mph - N/A   Clear
6:35 PM 60.8 °F 50.0 °F 68% 30.19 in 10.0 mi North 18.4 mph - N/A   Clear
6:55 PM 60.8 °F 50.0 °F 68% 30.19 in 10.0 mi North 16.1 mph - N/A   Clear
7:15 PM 60.8 °F 51.8 °F 72% 30.19 in 10.0 mi North 16.1 mph - N/A   Clear
7:35 PM 60.8 °F 51.8 °F 72% 30.19 in 10.0 mi North 15.0 mph 20.7 mph N/A   Clear
7:55 PM 59.0 °F 51.8 °F 77% 30.19 in 10.0 mi North 17.3 mph 23.0 mph N/A   Clear
8:15 PM 59.0 °F 51.8 °F 77% 30.18 in 10.0 mi North 16.1 mph 20.7 mph N/A   Clear
8:35 PM 57.2 °F 51.8 °F 82% 30.18 in 10.0 mi North 13.8 mph - N/A   Clear
8:55 PM 57.2 °F 51.8 °F 82% 30.18 in 10.0 mi North 12.7 mph - N/A   Clear
9:15 PM 57.2 °F 51.8 °F 82% 30.18 in 10.0 mi North 10.4 mph - N/A   Clear
9:35 PM 57.2 °F 50.0 °F 77% 30.18 in 10.0 mi North 10.4 mph - N/A   Clear
9:55 PM 55.4 °F 50.0 °F 82% 30.18 in 10.0 mi North 9.2 mph - N/A   Clear
10:15 PM 55.4 °F 50.0 °F 82% 30.19 in 10.0 mi North 8.1 mph - N/A   Clear
10:35 PM 55.4 °F 50.0 °F 82% 30.19 in 10.0 mi North 5.8 mph - N/A   Clear
10:55 PM 55.4 °F 48.2 °F 77% 30.19 in 10.0 mi North 3.5 mph - N/A   Clear
11:15 PM 53.6 °F 50.0 °F 88% 30.18 in 10.0 mi North 4.6 mph - N/A   Clear
11:35 PM 53.6 °F 50.0 °F 88% 30.18 in 10.0 mi North 3.5 mph - N/A   Clear
11:55 PM 53.6 °F 48.2 °F 82% 30.18 in 10.0 mi Calm Calm - N/A   Clear